Lexington Weather

Lexington, Massachusetts, USA

35°F
10/30/2020 6:21am 
  • Lexington Conditions: Light snow, Mist, Overcast
  • Temperature: 34.5°F / 1.4°CColder 1.3°F than last hour.
  • Dew Point: 33.8°FDecreased 1.3°Fsince last hour.
  • Relative Humidity: 97
  • Wind: Wind from W W 6 mph, 10-min avg: 2 mph, gust: 6 mph
  • Barometer: 29.74 inFalling 0.03  inHg/hr Falling Slowly
  • Visibility: 5 miles
  • Rain Today: 0.09 in
  •   
Southeast Middlesex County - Winter Weather Advisory
 - SEE ALL NEARBY ALERTS -

Regional Weather Roundup
for Boston / Norton, MA

        
000
ASUS41 KBOX 290804
RWRBOX

REGIONAL WEATHER ROUNDUP
NATIONAL WEATHER SERVICE BOSTON/NORTON MA
400 AM EDT THU OCT 29 2020

NOTE:  "FAIR" INDICATES FEW OR NO CLOUDS BELOW 12,000 FEET WITH NO 
SIGNIFICANT WEATHER AND/OR OBSTRUCTIONS TO VISIBILITY.

MAZALL-290900-
EASTERN MASSACHUSETTS
  
CITY           SKY/WX    TMP DP  RH WIND       PRES   REMARKS
BOSTON         MOCLDY    47  43  86 W8        29.95F                  
BEVERLY        CLOUDY    45  43  93 W3        29.94S                  
LAWRENCE       CLOUDY    43  43 100 W3        29.96S FOG              
BEDFORD        CLEAR     43  42  97 SW6       29.94F                  
BLUE HILL        N/A     44  43  96 NW9       29.92F                  
NORWOOD        CLEAR     44  42  93 CALM      29.95R FOG              
MARSHFIELD     PTCLDY    46  46 100 VRB5      29.94F                  
PLYMOUTH       CLEAR     45  43  93 W3        29.95R                  
TAUNTON        FOG       46  45  96 CALM      29.95S VSB 1/2          
NEW BEDFORD    MOCLDY    45  44  97 CALM      29.95R                  
$$

MAZALL-290900-
CAPE COD AND THE ISLANDS
  
CITY           SKY/WX    TMP DP  RH WIND       PRES   REMARKS
FALMOUTH       PTCLDY    43  43 100 NW3       29.95S FOG              
HYANNIS        CLEAR     45  44  97 CALM      29.94R                  
CHATHAM        CLEAR     46  43  89 SW3       29.95S FOG              
PROVINCETOWN   CLEAR     50  47  89 NW10      29.94                   
NANTUCKET      CLEAR    N/A N/A N/A NW5       29.96S                  
MARTHAS VNYRD  CLEAR     43  42  97 CALM      29.95S                  
$$
 
MAZALL-290900-
CENTRAL AND WESTERN MASSACHUSETTS
  
CITY           SKY/WX    TMP DP  RH WIND       PRES   REMARKS
WORCESTER      MOCLDY    44  42  93 W6        29.94S                  
FITCHBURG      CLEAR     40  32  73 CALM      29.95F                  
ORANGE         FOG       42  42 100 CALM      29.95S VSB 1/4          
SPRINGFIELD    NOT AVBL                                               
WESTFIELD      FOG       41  41 100 CALM      29.95F VSB 1            
NORTH ADAMS    PTCLDY    42  40  92 CALM      29.93F                  
PITTSFIELD     PTCLDY    41  40  96 CALM      29.92S FOG              
$$
 
RIZALL-290900-
RHODE ISLAND
  
CITY           SKY/WX    TMP DP  RH WIND       PRES   REMARKS
PROVIDENCE     MOCLDY    46  46 100 CALM      29.96S                  
NEWPORT        CLEAR     46  46 100 CALM      29.95F FOG              
BLOCK ISLAND   PTCLDY    51  49  92 CALM      29.95F                  
SMITHFIELD     MOCLDY    45  45 100 CALM      29.95S                  
WESTERLY       FOG       45  43  93 CALM      29.95F VSB 1/2          
$$
 
CTZALL-290900-
CONNECTICUT
  
CITY           SKY/WX    TMP DP  RH WIND       PRES   REMARKS
BRADLEY INTL   FOG       46  45  96 N3        29.95F VSB 1/2          
HARTFORD       CLOUDY    48  46  93 CALM      29.95F FOG              
BRIDGEPORT     MOCLDY    51  48  89 CALM      29.94F                  
DANBURY        PTCLDY    46  45  96 SW5       29.95S                  
GROTON         CLOUDY    45  45 100 N5        29.95F FOG              
NEW HAVEN      MOCLDY    49  47  93 CALM      29.94F                  
CHESTER        FAIR      46  46 100 CALM      29.95S                  
MERIDEN        CLOUDY    45  44  97 CALM      29.95F                  
WILLIMANTIC    CLOUDY    48  46  93 CALM      29.95S                  
OXFORD         PTCLDY    46  46 100 CALM      29.94F                  
$$

MEZ002-015-021-024-NHZ003-005-008-011-012-014-VTZ005-008-290900-
NORTHERN NEW ENGLAND
  
CITY           SKY/WX    TMP DP  RH WIND       PRES   REMARKS
PORTLAND ME    FOG       36  36 100 CALM      29.91F VSB 1/4          
BANGOR ME      CLOUDY    35  33  92 W5        29.88F FOG     WCI  31  
CONCORD NH     FOG       37  36  96 S3        29.93S VSB 1/2          
MANCHESTER NH  FOG       40  39  97 S3        29.92F VSB 1/4          
NASHUA NH      FOG       39  39 100 CALM      29.95S VSB 3/4          
PORTSMOUTH NH  CLOUDY    43  42  99 S3        29.92  FOG              
JAFFREY NH     CLEAR     39  37  92 CALM      29.93S                  
KEENE NH       FOG       41  41 100 N3        29.93F VSB 1/2          
BURLINGTON VT  MOCLDY    42  37  82 CALM      29.91S                  
MT. WASHINGTON FOG       21  21 100 W44G49      N/A  VSB 1/16WCI   0  
$$

NYZ052-076-290900-
EASTERN NEW YORK
  
CITY           SKY/WX    TMP DP  RH WIND       PRES   REMARKS
ALBANY         FOG       39  39 100 S3        29.94F VSB 1/4          
NEW YORK CITY  CLOUDY    57  46  66 N6        29.92F                  
$$
 
ANZALL-290900-
MARINE OBSERVATIONS
  
STATION/POSITION TIME  TEMP    WIND        PRES    VSBY  WAVE
                       AIR SEA DIR/SP/G                  HT/PER
                 (UTC) (F)     (DEG/KT/KT) (MB)    (MI)  (FT/S)
BOSTON BUOY      0740   50 55  280/ 14/ 17 1014.5R
BUZZARDS BAY     0700          290/  6/  8 1015.3F
NANTUCKET SOUND  0750      60  290/ 10/ 14   N/A           1/ 3
MASS BAY-STELLWA 0704   49 56  290/ 10/ 12 1013.2R  1 7/8  2/ 8
ISLE OF SHOALS   0700   44     280/ 10/ 12 1013.4R
S OF BLOCK IS    0726      62                N/A           3/ 7
$$

......................KEY.........................
  SKY/WX - SKY CONDITION/PRESENT WEATHER
  TMP    - TEMPERATURE IN FAHRENHEIT
  DWPT   - DEWPOINT IN FAHRENHEIT
  RH     - RELATIVE HUMIDITY IN PERCENT
  WIND   - DIRECTION AND SPEED IN MPH
  PRES   - MEAN SEA LEVEL PRESSURE IN INCHES OF HG
  WCI    - WIND CHILL INDEX
  VSB    - VISIBILITY IN MILES
  HX     - HEAT INDEX
  TC     - TEMPERATURE IN CELSIUS
  VRB    - VARIABLE WIND DIRECTION
  N/A    - NOT AVAILABLE
  
      

Other recent Regional Weather Roundups

Fri Oct 30, 6:04am

Fri Oct 30, 5:04am

Fri Oct 30, 4:04am

Fri Oct 30, 3:04am

Fri Oct 30, 2:04am

Fri Oct 30, 1:04am

Fri Oct 30, 12:04am

Thu Oct 29, 11:04pm

Thu Oct 29, 10:04pm

Thu Oct 29, 9:04pm

Thu Oct 29, 8:04pm

Thu Oct 29, 7:04pm

Thu Oct 29, 6:04pm

Thu Oct 29, 5:05pm

Thu Oct 29, 4:05pm

Thu Oct 29, 3:05pm

Thu Oct 29, 2:04pm

Thu Oct 29, 1:04pm

Thu Oct 29, 12:04pm

Thu Oct 29, 11:04am

Thu Oct 29, 10:04am

Thu Oct 29, 9:04am

Thu Oct 29, 8:04am

Thu Oct 29, 7:04am

Thu Oct 29, 6:04am

Thu Oct 29, 5:04am

Thu Oct 29, 3:04am

Thu Oct 29, 2:04am

Thu Oct 29, 1:05am

Thu Oct 29, 12:04am

Wed Oct 28, 11:05pm

Wed Oct 28, 10:04pm

Wed Oct 28, 9:04pm

Wed Oct 28, 8:04pm

Wed Oct 28, 7:05pm

Wed Oct 28, 6:04pm

Wed Oct 28, 5:05pm

Wed Oct 28, 4:04pm

Wed Oct 28, 3:04pm

Wed Oct 28, 2:04pm

Wed Oct 28, 1:05pm

Wed Oct 28, 12:05pm

Wed Oct 28, 11:05am

Wed Oct 28, 10:04am

Wed Oct 28, 9:04am

Wed Oct 28, 8:04am

Wed Oct 28, 7:04am

Wed Oct 28, 6:04am

Wed Oct 28, 5:05am

Wed Oct 28, 4:04am

Wed Oct 28, 3:04am

Wed Oct 28, 2:04am

Wed Oct 28, 1:05am

Wed Oct 28, 12:04am

Tue Oct 27, 11:04pm

Tue Oct 27, 10:04pm

Tue Oct 27, 9:05pm

Tue Oct 27, 8:04pm

Tue Oct 27, 7:04pm

Tue Oct 27, 6:04pm

Tue Oct 27, 5:04pm

Tue Oct 27, 4:05pm

Tue Oct 27, 3:04pm

Tue Oct 27, 2:04pm

Tue Oct 27, 1:04pm

Tue Oct 27, 12:04pm

Tue Oct 27, 11:04am

Tue Oct 27, 10:04am

Tue Oct 27, 9:04am

Tue Oct 27, 8:04am

Tue Oct 27, 7:04am

Tue Oct 27, 6:04am

Tue Oct 27, 5:04am

Tue Oct 27, 4:04am

Tue Oct 27, 3:04am

Tue Oct 27, 2:05am

Tue Oct 27, 1:04am

Tue Oct 27, 12:04am

Mon Oct 26, 11:05pm

Mon Oct 26, 10:04pm

Mon Oct 26, 9:04pm

Mon Oct 26, 8:04pm

Mon Oct 26, 7:04pm

Mon Oct 26, 6:04pm

Mon Oct 26, 5:04pm

Mon Oct 26, 4:05pm

Mon Oct 26, 2:04pm

Mon Oct 26, 1:04pm

Mon Oct 26, 12:04pm

Mon Oct 26, 11:05am

Mon Oct 26, 10:04am

Mon Oct 26, 9:04am

Mon Oct 26, 8:04am

Mon Oct 26, 7:04am

Mon Oct 26, 6:04am

Mon Oct 26, 5:04am

Mon Oct 26, 4:04am

Mon Oct 26, 3:04am

Mon Oct 26, 2:04am

Mon Oct 26, 1:04am

Mon Oct 26, 12:04am

Sun Oct 25, 11:05pm

Sun Oct 25, 10:04pm

Sun Oct 25, 9:04pm

Sun Oct 25, 8:04pm

Sun Oct 25, 7:04pm

Sun Oct 25, 6:04pm

Sun Oct 25, 5:04pm

Sun Oct 25, 4:05pm

Sun Oct 25, 3:04pm

Sun Oct 25, 2:04pm

Sun Oct 25, 1:04pm

Sun Oct 25, 12:04pm

Sun Oct 25, 11:04am

Sun Oct 25, 10:04am

Sun Oct 25, 9:04am

Sun Oct 25, 8:04am

Sun Oct 25, 7:04am

Sun Oct 25, 6:04am

Sun Oct 25, 5:04am

Sun Oct 25, 4:04am

Sun Oct 25, 3:04am

Sun Oct 25, 2:04am

Sun Oct 25, 1:05am

Sun Oct 25, 12:04am

Sat Oct 24, 11:04pm

Sat Oct 24, 10:04pm

Sat Oct 24, 9:04pm

Sat Oct 24, 8:04pm

Sat Oct 24, 7:04pm

Sat Oct 24, 6:04pm

Sat Oct 24, 5:05pm

Sat Oct 24, 4:04pm

Sat Oct 24, 3:04pm

Sat Oct 24, 2:04pm

Sat Oct 24, 1:05pm

Sat Oct 24, 12:04pm

Sat Oct 24, 11:05am

Sat Oct 24, 10:05am

Sat Oct 24, 9:04am

Sat Oct 24, 8:04am

Sat Oct 24, 7:04am

Sat Oct 24, 6:04am

Sat Oct 24, 5:04am

Sat Oct 24, 4:04am

Sat Oct 24, 3:04am

Sat Oct 24, 2:04am

Sat Oct 24, 1:05am

Sat Oct 24, 12:04am

Fri Oct 23, 11:04pm

Fri Oct 23, 10:04pm

Fri Oct 23, 9:04pm

Fri Oct 23, 8:05pm

Fri Oct 23, 7:04pm

Fri Oct 23, 6:04pm

Fri Oct 23, 5:05pm

Fri Oct 23, 4:04pm

Fri Oct 23, 3:04pm

Fri Oct 23, 2:05pm

Fri Oct 23, 1:04pm

Fri Oct 23, 12:04pm

Fri Oct 23, 11:04am

Fri Oct 23, 10:04am

Fri Oct 23, 9:04am

Fri Oct 23, 8:04am

Fri Oct 23, 7:04am

Meta data:

ID: de68b561-41a1-4432-a0b6-b7a2cbf8d6b6
Link: https://api.weather.gov/products/de68b561-41a1-4432-a0b6-b7a2cbf8d6b6